Location: Unspecified
(35.6961°N, 0.0000°E)
Time: 00:45:11
(UTC+00:00)

Altair - Pass Details

Date: 25 May 2019
Orbit: 1501 x 1683 km, 47.2° (Epoch: 16 June)

Event Time Altitude Azimuth Distance (km) Brightness Sun altitude
Rises 04:27:59 0° 258° (WSW) 4,901 - -4.5°
Exits shadow 04:28:51 - 259° (WSW) 4,641 9.4 -4.4°
Reaches altitude 10° 04:31:15 10° 262° (W) 3,927 9.1 -4.0°
Maximum altitude 04:41:08 55° 339° (NNW) 1,959 8.2 -2.2°
Drops below altitude 10° 04:51:03 10° 56° (NE) 3,926 11.8 -0.4°
Sets 04:54:20 0° 61° (ENE) 4,899 13.9 0.2°
